TimePDT,TemperatureF,Dew PointF,Humidity,Sea Level PressureIn,VisibilityMPH,Wind Direction,Wind SpeedMPH,Gust SpeedMPH,PrecipitationIn,Events,Conditions,WindDirDegrees,DateUTC
12:53 AM,60.1,19.0,20,30.03,10.0,NNE,9.2,-,N/A,,Clear,30,2012-10-07 07:53:00
1:53 AM,55.9,21.0,26,30.04,10.0,NNE,8.1,-,N/A,,Clear,20,2012-10-07 08:53:00
2:53 AM,52.0,21.9,31,30.03,10.0,North,8.1,-,N/A,,Clear,10,2012-10-07 09:53:00
3:53 AM,51.1,23.0,33,30.03,10.0,Calm,Calm,-,N/A,,Clear,0,2012-10-07 10:53:00
4:53 AM,42.1,27.0,55,30.03,10.0,SSE,3.5,-,N/A,,Clear,160,2012-10-07 11:53:00
5:53 AM,37.9,27.0,65,30.03,10.0,SSE,3.5,-,N/A,,Clear,150,2012-10-07 12:53:00
6:53 AM,41.0,27.0,57,30.03,10.0,Calm,Calm,-,N/A,,Clear,0,2012-10-07 13:53:00
7:53 AM,37.9,28.0,68,30.04,10.0,Calm,Calm,-,N/A,,Clear,0,2012-10-07 14:53:00
8:53 AM,48.0,30.0,50,30.04,10.0,Calm,Calm,-,N/A,,Clear,0,2012-10-07 15:53:00
9:53 AM,62.1,28.0,28,30.04,10.0,Variable,3.5,-,N/A,,Clear,0,2012-10-07 16:53:00
10:53 AM,66.9,28.9,24,30.02,10.0,Variable,4.6,-,N/A,,Clear,0,2012-10-07 17:53:00
11:53 AM,70.0,30.0,23,30.01,10.0,Calm,Calm,-,N/A,,Clear,0,2012-10-07 18:53:00
12:53 PM,73.9,28.0,18,29.98,10.0,Variable,4.6,-,N/A,,Clear,0,2012-10-07 19:53:00
1:53 PM,75.9,27.0,16,29.96,10.0,Variable,3.5,-,N/A,,Clear,0,2012-10-07 20:53:00
2:53 PM,79.0,26.1,14,29.94,10.0,North,6.9,-,N/A,,Clear,360,2012-10-07 21:53:00
3:53 PM,79.0,28.0,15,29.93,10.0,Variable,3.5,-,N/A,,Clear,0,2012-10-07 22:53:00
4:53 PM,79.0,28.0,15,29.91,10.0,NW,3.5,-,N/A,,Clear,310,2012-10-07 23:53:00
5:53 PM,73.9,32.0,21,29.91,10.0,North,5.8,-,N/A,,Clear,10,2012-10-08 00:53:00
6:53 PM,68.0,32.0,26,29.91,10.0,Calm,Calm,-,N/A,,Clear,0,2012-10-08 01:53:00
7:53 PM,61.0,33.1,35,29.91,10.0,Calm,Calm,-,N/A,,Clear,0,2012-10-08 02:53:00
8:53 PM,57.0,35.1,44,29.91,10.0,Calm,Calm,-,N/A,,Clear,0,2012-10-08 03:53:00
9:53 PM,52.0,36.0,54,29.91,10.0,Calm,Calm,-,N/A,,Clear,0,2012-10-08 04:53:00
10:53 PM,52.0,35.1,53,29.92,10.0,Calm,Calm,-,N/A,,Clear,0,2012-10-08 05:53:00
11:53 PM,48.9,34.0,56,29.93,10.0,Calm,Calm,-,N/A,,Clear,0,2012-10-08 06:53:00